| time (UTC) | temp C | wind direction | speed KPH | gust KPH | rain 1hr cm | rain 24hr cm | rain mn cm | humidity % | barometer mb |
| 20260505012003 | 13 | 259 | 4.8 | 11.3 | 0.00 | 0.00 | 0.00 | 62 | 1007.4 |
| 20260505011508 | 12 | 257 | 3.2 | 11.3 | 0.00 | 0.00 | 0.00 | 65 | 1007.4 |
| 20260505011002 | 12 | 247 | 4.8 | 11.3 | 0.00 | 0.00 | 0.00 | 68 | 1007.3 |
| 20260505010505 | 11 | 233 | 1.6 | 9.7 | 0.00 | 0.00 | 0.00 | 70 | 1007.3 |
| 20260505010011 | 11 | 204 | 3.2 | 11.3 | 0.00 | 0.00 | 0.00 | 71 | 1007.3 |
| 20260505005504 | 11 | 245 | 3.2 | 11.3 | 0.00 | 0.00 | 0.00 | 72 | 1007.2 |
| 20260505005004 | 11 | 226 | 4.8 | 9.7 | 0.00 | 0.00 | 0.00 | 73 | 1007.0 |
| 20260505004518 | 10 | 232 | 6.4 | 9.7 | 0.00 | 0.00 | 0.00 | 73 | 1007.0 |
| 20260505004008 | 10 | 221 | 4.8 | 9.7 | 0.00 | 0.00 | 0.00 | 73 | 1006.9 |
| 20260505003507 | 10 | 204 | 1.6 | 8.0 | 0.00 | 0.00 | 0.00 | 73 | 1006.9 |
| 20260505003022 | 10 | 205 | 1.6 | 9.7 | 0.00 | 0.00 | 0.00 | 73 | 1006.8 |
| 20260505002508 | 10 | 226 | 3.2 | 9.7 | 0.00 | 0.00 | 0.00 | 73 | 1006.8 |
| 20260505002007 | 11 | 234 | 4.8 | 9.7 | 0.00 | 0.00 | 0.00 | 72 | 1006.7 |
| 20260505001525 | 11 | 224 | 3.2 | 9.7 | 0.00 | 0.00 | 0.00 | 72 | 1006.7 |
| 20260505001008 | 11 | 218 | 3.2 | 8.0 | 0.00 | 0.00 | 0.00 | 71 | 1006.5 |
| 20260505000503 | 11 | 195 | 3.2 | 8.0 | 0.00 | 0.00 | 0.00 | 71 | 1006.4 |
| 20260505000013 | 11 | 204 | 3.2 | 12.9 | 0.00 | 0.00 | 0.00 | 69 | 1006.3 |
| 20260504235504 | 11 | 212 | 3.2 | 12.9 | 0.00 | 0.00 | 0.00 | 66 | 1006.2 |
| 20260504235008 | 13 | 191 | 4.8 | 9.7 | 0.00 | 0.00 | 0.00 | 57 | 1006.2 |
| 20260504234517 | 16 | 190 | 4.8 | 8.0 | 0.00 | 0.00 | 0.00 | 52 | 1006.1 |
| 20260504234011 | 19 | 153 | 1.6 | 4.8 | 0.00 | 0.00 | 0.00 | 44 | 1006.1 |
| 20260504233507 | 20 | 222 | 1.6 | 6.4 | 0.00 | 0.00 | 0.00 | 33 | 1006.0 |
| 20260504233022 | 20 | 221 | 1.6 | 6.4 | 0.00 | 0.00 | 0.00 | 33 | 1005.9 |
| 20260504232508 | 20 | 216 | 0.0 | 8.0 | 0.00 | 0.00 | 0.00 | 33 | 1005.9 |
| 20260504232008 | 20 | 233 | 3.2 | 8.0 | 0.00 | 0.00 | 0.00 | 33 | 1005.8 |
| 20260504231523 | 21 | 259 | 3.2 | 9.7 | 0.00 | 0.00 | 0.00 | 33 | 1005.8 |
| 20260504231007 | 21 | 238 | 1.6 | 9.7 | 0.00 | 0.00 | 0.00 | 33 | 1005.6 |
| 20260504230509 | 21 | 305 | 3.2 | 12.9 | 0.00 | 0.00 | 0.00 | 32 | 1005.6 |
| 20260504230027 | 21 | 235 | 4.8 | 12.9 | 0.00 | 0.00 | 0.00 | 33 | 1005.6 |
| 20260504225508 | 21 | 320 | 1.6 | 6.4 | 0.00 | 0.00 | 0.00 | 33 | 1005.5 |
| 20260504225002 | 21 | 335 | 1.6 | 11.3 | 0.00 | 0.00 | 0.00 | 33 | 1005.5 |
| 20260504224512 | 21 | 302 | 1.6 | 11.3 | 0.00 | 0.00 | 0.00 | 33 | 1005.4 |
| 20260504224004 | 21 | 311 | 3.2 | 9.7 | 0.00 | 0.00 | 0.00 | 32 | 1005.4 |
| 20260504223507 | 21 | 301 | 1.6 | 9.7 | 0.00 | 0.00 | 0.00 | 32 | 1005.4 |
| 20260504223018 | 21 | 273 | 3.2 | 20.9 | 0.00 | 0.00 | 0.00 | 31 | 1005.4 |
| 20260504222508 | 21 | 339 | 4.8 | 20.9 | 0.00 | 0.00 | 0.00 | 31 | 1005.3 |
| 20260504222010 | 21 | 355 | 4.8 | 17.7 | 0.00 | 0.00 | 0.00 | 31 | 1005.3 |
| 20260504221523 | 21 | 350 | 3.2 | 14.5 | 0.00 | 0.00 | 0.00 | 31 | 1005.2 |
| 20260504221009 | 21 | 222 | 6.4 | 14.5 | 0.00 | 0.00 | 0.00 | 30 | 1005.2 |
| 20260504220510 | 21 | 297 | 3.2 | 12.9 | 0.00 | 0.00 | 0.00 | 31 | 1005.3 |
| 20260504220025 | 21 | 295 | 3.2 | 12.9 | 0.00 | 0.00 | 0.00 | 31 | 1005.3 |
| 20260504215509 | 21 | 321 | 4.8 | 12.9 | 0.00 | 0.00 | 0.00 | 32 | 1005.3 |
| 20260504215011 | 21 | 259 | 1.6 | 12.9 | 0.00 | 0.00 | 0.00 | 32 | 1005.2 |
| 20260504214528 | 21 | 240 | 6.4 | 16.1 | 0.00 | 0.00 | 0.00 | 32 | 1005.3 |
| 20260504214007 | 21 | 222 | 4.8 | 16.1 | 0.00 | 0.00 | 0.00 | 32 | 1005.2 |
| 20260504213514 | 21 | 320 | 6.4 | 16.1 | 0.00 | 0.00 | 0.00 | 32 | 1005.2 |
| 20260504213020 | 21 | 350 | 4.8 | 16.1 | 0.00 | 0.00 | 0.00 | 31 | 1005.1 |
| 20260504212508 | 22 | 315 | 4.8 | 16.1 | 0.00 | 0.00 | 0.00 | 31 | 1005.1 |
| 20260504212011 | 22 | 317 | 4.8 | 17.7 | 0.00 | 0.00 | 0.00 | 31 | 1005.1 |
| 20260504211521 | 22 | 254 | 6.4 | 17.7 | 0.00 | 0.00 | 0.00 | 30 | 1005.1 |
| 20260504211009 | 22 | 245 | 1.6 | 16.1 | 0.00 | 0.00 | 0.00 | 31 | 1005.2 |
| 20260504210509 | 22 | 323 | 3.2 | 19.3 | 0.00 | 0.00 | 0.00 | 30 | 1005.2 |
| 20260504210034 | 22 | 228 | 9.7 | 19.3 | 0.00 | 0.00 | 0.00 | 30 | 1005.2 |
| 20260504205508 | 22 | 234 | 3.2 | 19.3 | 0.00 | 0.00 | 0.00 | 30 | 1005.2 |
| 20260504205007 | 22 | 136 | 3.2 | 19.3 | 0.00 | 0.00 | 0.00 | 31 | 1005.2 |
| 20260504204532 | 22 | 235 | 6.4 | 17.7 | 0.00 | 0.00 | 0.00 | 30 | 1005.1 |
| 20260504204010 | 23 | 334 | 8.0 | 19.3 | 0.00 | 0.00 | 0.00 | 30 | 1005.1 |
| 20260504203510 | 22 | 328 | 6.4 | 19.3 | 0.00 | 0.00 | 0.00 | 30 | 1005.1 |
| 20260504203027 | 22 | 305 | 4.8 | 30.6 | 0.00 | 0.00 | 0.00 | 30 | 1005.1 |
| 20260504202505 | 22 | 215 | 9.7 | 30.6 | 0.00 | 0.00 | 0.00 | 30 | 1005.1 |
| 20260504202004 | 22 | 242 | 4.8 | 17.7 | 0.00 | 0.00 | 0.00 | 31 | 1005.1 |
| 20260504201517 | 22 | 284 | 4.8 | 27.4 | 0.00 | 0.00 | 0.00 | 31 | 1005.0 |
| 20260504201008 | 22 | 257 | 9.7 | 27.4 | 0.00 | 0.00 | 0.00 | 30 | 1005.1 |
| 20260504200508 | 22 | 350 | 6.4 | 20.9 | 0.00 | 0.00 | 0.00 | 31 | 1005.2 |
| 20260504200022 | 22 | 237 | 6.4 | 19.3 | 0.00 | 0.00 | 0.00 | 30 | 1005.2 |
| 20260504195509 | 22 | 257 | 8.0 | 24.1 | 0.00 | 0.00 | 0.00 | 31 | 1005.3 |
| 20260504195006 | 22 | 263 | 11.3 | 24.1 | 0.00 | 0.00 | 0.00 | 31 | 1005.3 |
| 20260504194526 | 22 | 317 | 6.4 | 24.1 | 0.00 | 0.00 | 0.00 | 31 | 1005.3 |
| 20260504194012 | 22 | 54 | 9.7 | 24.1 | 0.00 | 0.00 | 0.00 | 30 | 1005.3 |
| 20260504193512 | 22 | 295 | 4.8 | 20.9 | 0.00 | 0.00 | 0.00 | 31 | 1005.2 |
| 20260504193028 | 22 | 299 | 4.8 | 19.3 | 0.00 | 0.00 | 0.00 | 31 | 1005.2 |
| 20260504192510 | 21 | 257 | 4.8 | 19.3 | 0.00 | 0.00 | 0.00 | 32 | 1005.3 |
| 20260504192009 | 21 | 329 | 6.4 | 14.5 | 0.00 | 0.00 | 0.00 | 32 | 1005.3 |
| 20260504191515 | 21 | 205 | 3.2 | 16.1 | 0.00 | 0.00 | 0.00 | 33 | 1005.4 |
| 20260504191011 | 20 | 204 | 8.0 | 17.7 | 0.00 | 0.00 | 0.00 | 33 | 1005.4 |
| 20260504190506 | 20 | 276 | 8.0 | 17.7 | 0.00 | 0.00 | 0.00 | 33 | 1005.4 |
| 20260504190019 | 20 | 237 | 4.8 | 17.7 | 0.00 | 0.00 | 0.00 | 33 | 1005.4 |
| 20260504185507 | 20 | 323 | 4.8 | 24.1 | 0.00 | 0.00 | 0.00 | 33 | 1005.5 |
| 20260504185009 | 20 | 242 | 6.4 | 24.1 | 0.00 | 0.00 | 0.00 | 33 | 1005.6 |
| 20260504184524 | 20 | 251 | 6.4 | 19.3 | 0.00 | 0.00 | 0.00 | 33 | 1005.6 |
| 20260504184007 | 20 | 208 | 8.0 | 16.1 | 0.00 | 0.00 | 0.00 | 33 | 1005.5 |
| 20260504183514 | 20 | 296 | 3.2 | 17.7 | 0.00 | 0.00 | 0.00 | 33 | 1005.5 |
| 20260504183023 | 20 | 265 | 4.8 | 17.7 | 0.00 | 0.00 | 0.00 | 32 | 1005.5 |
| 20260504182513 | 20 | 170 | 4.8 | 20.9 | 0.00 | 0.00 | 0.00 | 33 | 1005.5 |
| 20260504182013 | 20 | 330 | 8.0 | 25.7 | 0.00 | 0.00 | 0.00 | 32 | 1005.4 |
| 20260504181526 | 20 | 228 | 11.3 | 25.7 | 0.00 | 0.00 | 0.00 | 31 | 1005.4 |
| 20260504181011 | 20 | 250 | 4.8 | 20.9 | 0.00 | 0.00 | 0.00 | 32 | 1005.5 |
| 20260504180512 | 20 | 261 | 6.4 | 22.5 | 0.00 | 0.00 | 0.00 | 32 | 1005.5 |
| 20260504180020 | 20 | 252 | 8.0 | 22.5 | 0.00 | 0.00 | 0.00 | 32 | 1005.5 |
| 20260504175511 | 20 | 317 | 6.4 | 19.3 | 0.00 | 0.00 | 0.00 | 31 | 1005.5 |
| 20260504175007 | 20 | 257 | 8.0 | 19.3 | 0.00 | 0.00 | 0.00 | 31 | 1005.4 |
| 20260504174523 | 20 | 226 | 9.7 | 24.1 | 0.00 | 0.00 | 0.00 | 31 | 1005.5 |
| 20260504174008 | 20 | 257 | 11.3 | 25.7 | 0.00 | 0.00 | 0.00 | 30 | 1005.5 |
| 20260504173504 | 21 | 319 | 8.0 | 25.7 | 0.00 | 0.00 | 0.00 | 30 | 1005.4 |
| 20260504173006 | 21 | 257 | 4.8 | 24.1 | 0.00 | 0.00 | 0.00 | 30 | 1005.3 |
| 20260504172504 | 21 | 253 | 8.0 | 20.9 | 0.00 | 0.00 | 0.00 | 29 | 1005.4 |
| 20260504172004 | 21 | 256 | 11.3 | 20.9 | 0.00 | 0.00 | 0.00 | 30 | 1005.4 |
| 20260504171512 | 21 | 205 | 11.3 | 24.1 | 0.00 | 0.00 | 0.00 | 30 | 1005.4 |
| 20260504171009 | 21 | 334 | 9.7 | 24.1 | 0.00 | 0.00 | 0.00 | 29 | 1005.5 |
| 20260504170506 | 21 | 253 | 6.4 | 25.7 | 0.00 | 0.00 | 0.00 | 31 | 1005.5 |
| 20260504151006 | 18 | 225 | 6.4 | 17.7 | 0.00 | 0.00 | 0.00 | 41 | 1006.7 |
| 20260504150508 | 18 | 222 | 8.0 | 17.7 | 0.00 | 0.00 | 0.00 | 41 | 1006.7 |
| 20260504141007 | 16 | 271 | 4.8 | 25.7 | 0.00 | 0.00 | 0.00 | 43 | 1007.7 |
| 20260504140503 | 16 | 251 | 14.5 | 25.7 | 0.00 | 0.00 | 0.00 | 42 | 1007.9 |
| 20260504130509 | 13 | 305 | 4.8 | 11.3 | 0.00 | 0.00 | 0.00 | 50 | 1008.4 |
| 20260504110508 | 8 | 231 | 4.8 | 12.9 | 0.00 | 0.00 | 0.00 | 56 | 1009.1 |
| 20260504100508 | 6 | 268 | 3.2 | 6.4 | 0.00 | 0.00 | 0.00 | 59 | 1009.0 |
| 20260504082003 | 5 | 249 | 1.6 | 11.3 | 0.00 | 0.00 | 0.00 | 59 | 1009.0 |
| 20260504081511 | 5 | 247 | 3.2 | 11.3 | 0.00 | 0.00 | 0.00 | 60 | 1008.9 |
| 20260504081007 | 5 | 304 | 1.6 | 9.7 | 0.00 | 0.00 | 0.00 | 60 | 1009.0 |
| 20260504080507 | 5 | 267 | 1.6 | 9.7 | 0.00 | 0.00 | 0.00 | 61 | 1008.9 |
| 20260504050511 | 5 | 257 | 3.2 | 9.7 | 0.00 | 0.00 | 0.00 | 59 | 1008.8 |
| 20260504045506 | 5 | 253 | 3.2 | 8.0 | 0.00 | 0.00 | 0.00 | 59 | 1008.6 |
| 20260504045007 | 5 | 232 | 3.2 | 9.7 | 0.00 | 0.00 | 0.00 | 59 | 1008.6 |
| 20260504044528 | 5 | 241 | 1.6 | 9.7 | 0.00 | 0.00 | 0.00 | 59 | 1008.6 |
| 20260504044007 | 5 | 266 | 3.2 | 9.7 | 0.00 | 0.00 | 0.00 | 59 | 1008.7 |
| 20260504043507 | 5 | 252 | 3.2 | 9.7 | 0.00 | 0.00 | 0.00 | 60 | 1008.7 |
| 20260504043016 | 5 | 216 | 3.2 | 9.7 | 0.00 | 0.00 | 0.00 | 60 | 1008.7 |
| 20260504042508 | 5 | 261 | 1.6 | 6.4 | 0.00 | 0.00 | 0.00 | 60 | 1008.7 |
| 20260504042008 | 5 | 260 | 3.2 | 6.4 | 0.00 | 0.00 | 0.00 | 61 | 1008.7 |
| 20260504041537 | 5 | 248 | 3.2 | 4.8 | 0.00 | 0.00 | 0.00 | 61 | 1008.7 |
| 20260504041006 | 5 | 244 | 1.6 | 4.8 | 0.00 | 0.00 | 0.00 | 61 | 1008.6 |
| 20260504040509 | 5 | 296 | 0.0 | 3.2 | 0.00 | 0.00 | 0.00 | 61 | 1008.6 |
| 20260504040025 | 5 | 271 | 0.0 | 4.8 | 0.00 | 0.00 | 0.00 | 60 | 1008.5 |
| 20260504035507 | 5 | 251 | 1.6 | 4.8 | 0.00 | 0.00 | 0.00 | 60 | 1008.5 |
| 20260504035009 | 5 | 226 | 1.6 | 4.8 | 0.00 | 0.00 | 0.00 | 60 | 1008.4 |
| 20260504034528 | 5 | 236 | 1.6 | 3.2 | 0.00 | 0.00 | 0.00 | 59 | 1008.3 |
| 20260504034008 | 5 | 242 | 0.0 | 3.2 | 0.00 | 0.00 | 0.00 | 58 | 1008.2 |
| 20260504033507 | 6 | 258 | 1.6 | 4.8 | 0.00 | 0.00 | 0.00 | 58 | 1008.2 |
| 20260504033028 | 6 | 257 | 1.6 | 4.8 | 0.00 | 0.00 | 0.00 | 57 | 1008.2 |
| 20260504032515 | 6 | 244 | 1.6 | 9.7 | 0.00 | 0.00 | 0.00 | 57 | 1008.2 |
| 20260504032006 | 6 | 267 | 1.6 | 9.7 | 0.00 | 0.00 | 0.00 | 57 | 1008.2 |
| 20260504031518 | 6 | 236 | 1.6 | 4.8 | 0.00 | 0.00 | 0.00 | 56 | 1008.2 |
| 20260504031008 | 6 | 267 | 1.6 | 4.8 | 0.00 | 0.00 | 0.00 | 56 | 1008.1 |
| 20260504030507 | 6 | 238 | 1.6 | 8.0 | 0.00 | 0.00 | 0.00 | 56 | 1008.3 |
| 20260504030021 | 6 | 243 | 1.6 | 8.0 | 0.00 | 0.00 | 0.00 | 55 | 1008.3 |
| 20260504025509 | 6 | 246 | 3.2 | 6.4 | 0.00 | 0.00 | 0.00 | 55 | 1008.2 |
| 20260504025010 | 6 | 273 | 1.6 | 6.4 | 0.00 | 0.03 | 0.00 | 56 | 1008.3 |
| 20260504024526 | 6 | 286 | 1.6 | 4.8 | 0.00 | 0.03 | 0.00 | 56 | 1008.3 |
| 20260504024010 | 6 | 304 | 1.6 | 4.8 | 0.00 | 0.03 | 0.00 | 56 | 1008.2 |
| 20260504023505 | 6 | 328 | 0.0 | 3.2 | 0.00 | 0.05 | 0.00 | 56 | 1008.2 |
| 20260504023011 | 6 | 303 | 0.0 | 3.2 | 0.00 | 0.05 | 0.00 | 56 | 1008.1 |
| 20260504022504 | 6 | 239 | 1.6 | 4.8 | 0.00 | 0.05 | 0.00 | 56 | 1008.1 |
| 20260504022004 | 6 | 282 | 1.6 | 4.8 | 0.00 | 0.05 | 0.00 | 56 | 1008.0 |
| 20260504021514 | 6 | 267 | 0.0 | 3.2 | 0.00 | 0.05 | 0.00 | 55 | 1008.0 |
| 20260504021005 | 6 | 236 | 0.0 | 3.2 | 0.00 | 0.05 | 0.00 | 55 | 1007.9 |
| 20260504020508 | 6 | 267 | 0.0 | 3.2 | 0.00 | 0.05 | 0.00 | 55 | 1008.0 |
| 20260504020034 | 6 | 244 | 0.0 | 6.4 | 0.00 | 0.05 | 0.00 | 54 | 1008.1 |
| 20260504015508 | 6 | 257 | 1.6 | 6.4 | 0.00 | 0.05 | 0.00 | 54 | 1008.1 |
| 20260504015002 | 7 | 228 | 0.0 | 6.4 | 0.00 | 0.05 | 0.00 | 54 | 1008.1 |
| 20260504014503 | 7 | 236 | 1.6 | 6.4 | 0.00 | 0.05 | 0.00 | 53 | 1008.2 |
| 20260504014006 | 7 | 304 | 0.0 | 4.8 | 0.00 | 0.05 | 0.00 | 53 | 1008.2 |
| 20260504013508 | 7 | 262 | 1.6 | 4.8 | 0.00 | 0.05 | 0.00 | 53 | 1008.1 |
| 20260504013006 | 7 | 249 | 0.0 | 3.2 | 0.00 | 0.05 | 0.00 | 53 | 1008.0 |
| 20260504012508 | 7 | 261 | 0.0 | 3.2 | 0.00 | 0.05 | 0.00 | 52 | 1008.0 |